Home   Weather   Rancho Santa Margarita   Past weeks
Flag for USA

Past Weather in Rancho Santa Margarita, California, USA — Yesterday and Last 2 Weeks

Now
51 °F

Fog.


Feels Like: 51 °F
Forecast: 65 / 46 °F
Wind: 3 mph from North

Location: John Wayne Airport-Orange County Airport

Current Time: Dec 11, 2019 at 7:39:23 am

Latest Report: Dec 11, 2019 at 7:12 am


Visibility: 3 mi

Pressure: 30.19 "Hg

Humidity: 86%

Dew Point: 47 °F

Location of Rancho Santa MargaritaLocation

Past Weather in Rancho Santa Margarita — Graph

°F

Rancho Santa Margarita Temperature Yesterday

Maximum temperature yesterday: 67 °F (at 12:53 pm)
Minimum temperature yesterday: 51 °F (at 5:53 am)
Average temperature yesterday: 59 °F

High & Low Weather Summary for the Past Weeks

 TemperatureHumidityPressure
High70 °F (Nov 26, 11:53 am)93% (Dec 11, 3:53 am)30.24 "Hg (Dec 11, 3:53 am)
Low46 °F (Nov 29, 5:53 am)14% (Nov 26, 11:53 am)29.56 "Hg (Nov 28, 2:53 pm)
Average59 °F69%29.99 "Hg
* Reported Nov 26 5:53 am — Dec 11 5:53 am, Rancho Santa Margarita. Weather by CustomWeather, © 2019

Note: Actual official high and low records may vary slightly from our data, if they occured in-between our weather recording intervals... More about our weather records

Rancho Santa Margarita Weather History for the Previous 24 Hours

Scroll right to see more
 ConditionsComfort  
Time TempWeatherWind HumidityBarometerVisibility
5:53 am
Wed, Dec 11
50 °FFog.No wind89%30.19 "Hg0 mi
4:53 am51 °FFog.No wind89%30.16 "Hg0 mi
3:53 am52 °FFog.No wind93%30.17 "Hg0 mi
3:16 am52 °FFog.3 mph86%30.18 "Hg0 mi
3:02 am51 °FFog.No wind89%30.18 "Hg0 mi
2:36 am52 °FLow clouds.No wind83%30.19 "Hg7 mi
2:10 am53 °FPassing clouds.No wind80%30.18 "Hg9 mi
1:48 am54 °FPassing clouds.3 mph80%30.18 "Hg9 mi
12:53 am53 °FPassing clouds.No wind86%30.19 "Hg7 mi
11:53 pm
Tue, Dec 10
54 °FClear.No wind83%30.20 "Hg8 mi
10:53 pm56 °FPassing clouds.No wind81%30.19 "Hg9 mi
9:53 pm56 °FClear.No wind84%30.20 "Hg9 mi
8:53 pm58 °FPassing clouds.No wind78%30.19 "Hg9 mi
7:53 pm60 °FPassing clouds.3 mph75%30.18 "Hg10 mi
6:53 pm61 °FOvercast.No wind75%30.19 "Hg10 mi
5:53 pm61 °FOvercast.No wind75%30.18 "Hg10 mi
4:53 pm63 °FPassing clouds.6 mph68%30.18 "Hg10 mi
3:53 pm64 °FPartly sunny.3 mph65%30.17 "Hg10 mi
2:53 pm65 °FPartly sunny.5 mph66%30.17 "Hg10 mi
2:03 pm67 °FPartly sunny.6 mph61%30.18 "Hg10 mi
1:53 pm67 °FSunny.No wind57%30.17 "Hg10 mi
12:53 pm67 °FPartly sunny.No wind57%30.19 "Hg10 mi
11:53 am66 °FPartly sunny.3 mph61%30.22 "Hg10 mi
10:53 am63 °FPartly sunny.5 mph68%30.24 "Hg10 mi
9:53 am62 °FPartly sunny.No wind70%30.24 "Hg10 mi
8:53 am59 °FPartly sunny.No wind75%30.23 "Hg10 mi
7:53 am56 °FPartly sunny.3 mph77%30.21 "Hg10 mi
Weather by CustomWeather, © 2019

See weather overview

Advertising